Flag for Germany Weather past 2 weeks in Dresden, Saxony, Germany

Now
37 °F

Passing clouds.


Feels Like: 35 °F
Forecast: 37 / 46 °F
Wind: 3 mph from West

Location: Dresden-Klotzsche

Current Time: Mar 6, 2015 at 12:03:18 AM

Latest Report: Mar 5, 2015 at 11:20 PM


Visibility: N/A

Pressure: 30.54 "Hg

Humidity: 87%

Dew point: 34 °F

Location of DresdenLocation

Historic Weather in Dresden — Graph

°F

Dresden temperature yesterday

Maximum temperature yesterday: 41 °F (at 1:50 PM)
Minimum temperature yesterday: 34 °F (at 2:50 AM)
Average temperature yesterday: 37 °F

Past Weeks' High & Low Weather Summary

 TemperatureHumidityPressure
High52 °F (Feb 20, 2:20 PM)100% (Feb 19, 2:50 AM)30.60 "Hg (Feb 19, 2:50 AM)
Low25 °F (Feb 20, 3:20 AM)34% (Feb 26, 2:20 PM)29.45 "Hg (Feb 21, 1:20 PM)
Average38 °F74%29.94 "Hg
* Reported Feb 18 10:20 PM — Mar 5 10:50 PM, Dresden, Weather by CustomWeather, © 2015

Note: Actual official high and low records may vary slightly from our data, if they occured in-between our weather recording intervals... More about our weather records

Advertising

Dresden weather history for previous 24 hours

 ConditionsComfort  
Time TempWeatherWind HumidityBarometerVisibility
10:50 PM
Thu, Mar 5
37 °FPartly cloudy.5 mph93%30.54 "HgN/A
10:20 PM37 °FPartly cloudy.6 mph87%30.54 "HgN/A
9:50 PM37 °FPartly cloudy.6 mph87%30.54 "HgN/A
9:20 PM37 °FPartly cloudy.7 mph87%30.54 "HgN/A
8:50 PM37 °FPartly cloudy.7 mph87%30.54 "HgN/A
8:20 PM36 °FPartly cloudy.7 mph93%30.54 "HgN/A
7:50 PM36 °FPartly cloudy.5 mph93%30.51 "HgN/A
7:20 PM36 °FPartly cloudy.7 mph93%30.51 "HgN/A
6:50 PM37 °FPartly cloudy.8 mph87%30.51 "HgN/A
6:20 PM37 °FLight rain. Partly cloudy.8 mph87%30.51 "HgN/A
5:50 PM39 °FLight rain. Broken clouds.12 mph81%30.48 "HgN/A
5:20 PM41 °FPartly sunny.7 mph66%30.48 "HgN/A
4:50 PM41 °FScattered clouds.9 mph66%30.48 "HgN/A
4:20 PM41 °FBroken clouds.13 mph66%30.48 "HgN/A
3:50 PM41 °FBroken clouds.10 mph61%30.48 "HgN/A
3:20 PM41 °FBroken clouds.15 mph66%30.48 "HgN/A
2:50 PM41 °FPartly sunny.14 mph66%30.48 "HgN/A
2:20 PM41 °FBroken clouds.14 mph66%30.48 "HgN/A
1:50 PM41 °FPartly sunny.14 mph66%30.48 "HgN/A
1:20 PM39 °FPartly sunny.14 mph65%30.48 "HgN/A
12:50 PM39 °FPartly sunny.12 mph70%30.48 "HgN/A
12:20 PM39 °FPartly sunny.12 mph75%30.48 "HgN/A
11:50 AM39 °FPartly sunny.15 mph70%30.48 "HgN/A
11:20 AM39 °FPartly sunny.14 mph75%30.48 "HgN/A
10:50 AM36 °FBroken clouds.14 mph93%30.45 "HgN/A
10:20 AM36 °FBroken clouds.13 mph93%30.45 "HgN/A
9:50 AM37 °FPartly sunny.14 mph87%30.45 "HgN/A
9:20 AM36 °FPartly sunny.10 mph93%30.42 "HgN/A
8:50 AM36 °FLight rain. Partly sunny.10 mph93%30.42 "Hg5 mi
8:20 AM36 °FLight rain. Fog.9 mph100%30.39 "Hg4 mi
7:50 AM36 °FFog.8 mph100%30.39 "Hg3 mi
7:20 AM36 °FPartly sunny.9 mph93%30.36 "Hg5 mi
6:50 AM36 °FPartly sunny.9 mph93%30.36 "Hg5 mi
6:20 AM34 °FLow clouds.8 mph100%30.33 "Hg5 mi
5:50 AM34 °FLow clouds.7 mph100%30.33 "Hg6 mi
5:20 AM34 °FLight rain. Low clouds.8 mph100%30.33 "Hg6 mi
4:20 AM36 °FLight rain. Passing clouds.7 mph93%30.30 "HgN/A
3:50 AM36 °FPartly cloudy.8 mph93%30.30 "HgN/A
2:50 AM34 °FLight rain. Partly cloudy.7 mph93%30.30 "Hg6 mi
2:20 AM36 °FPassing clouds.8 mph87%30.27 "HgN/A
1:50 AM37 °FPartly cloudy.8 mph81%30.27 "HgN/A
1:20 AM37 °FLight rain. Passing clouds.12 mph81%30.27 "HgN/A
12:50 AM37 °FPassing clouds.10 mph75%30.27 "HgN/A
12:20 AM37 °FPartly cloudy.8 mph75%30.24 "HgN/A
Weather by CustomWeather, © 2015

See weather overviewHow to use our weather pages